Starlink 3785

operational
NORAD ID: 52375 Int'l Des: 2022-045 Owner: SPXS Country: US Constellation: starlink
LEOCIRCULAR

Über Starlink 3785

Beschreibung wird geladen...

Live-Position

3D-Globus wird geladen...

Nächste Überflüge

Höhenverlauf

Altitude vs Time

uPlot chart will show altitude changes over time

Zweizeiliger Elementsatz

1 52375U 22045AW 25260.47206826 -.00000951 00000-0 -41639-4 0 9999
2 52375 53.2155 246.7256 0001511 88.9422 271.1744 15.08839074189771
Epoch: 17. Sept. 2025 • Age: 23 hours

Aktueller Status

Höhe 545.1 km
Geschwindigkeit 7.60 km/s
Subsatellitenpunkt 52.58°N, 172.13°E
Startdatum 29. Apr. 2022
Alter 3.3 years
Typ internet

Technische Details

Klassifizierung Payload
Masse 297.00 kg
Trockenmasse 275.00 kg
Gesamtmasse 297.00 kg
Länge 0.20 m
Durchmesser 2.80 m
Spannweite 9.00 m
Form Box + pan
Hersteller SPXS
Bus-Typ Starlink
Phasenstatus In Orbit
Besitzer/Staat SPXS/US

Große Konstellationen

Loading constellations...